weather.gov     
National Weather Service

Regional Weather Roundup
NWS Homepage
This page is being discontinued on March 12, 2014.
The same data is available at this site. Please update your bookmarks.
Thank you, and we apologize for the inconvenience.
Please send an email to SR-SRH.Webmaster@noaa.gov with any concerns.


Current Version
Previous Version:    01  02  03  04  05  06  07  08  09  10  11  12  13  14  15  16  17  18  19  20  21  22  23  24  25  26  27  28  29  30  
   31  32  33  34  35  36  37  38  39  40  41  42  43  44  45  46  47  48  49  50  51  52  53  
[Printable]
744
ASUS44 KOUN 220410
RWROK

WEATHER ROUNDUP FOR OKLAHOMA
NATIONAL WEATHER SERVICE NORMAN OK
1100 PM CDT TUE OCT 21 2014

NOTE: "FAIR" INDICATES FEW OR NO CLOUDS BELOW 12,000 FEET WITH NO
      SIGNIFICANT WEATHER AND/OR OBSTRUCTIONS TO VISIBILITY.

OKZ001>007-009>012-014-015-017-220500-
NORTHWEST OKLAHOMA AND THE PANHANDLE

CITY           SKY/WX    TMP DP  RH WIND       PRES   REMARKS
GAGE           CLEAR     64  52  64 S12       30.04S
ENID/WOODRING  CLEAR     61  59  94 SE6       30.04S
$$

OKZ016-021>023-033>039-044-045-220500-
SOUTHWEST OKLAHOMA

CITY           SKY/WX    TMP DP  RH WIND       PRES   REMARKS
LAWTON/REGL    CLEAR     67  54  63 SE7       30.07R
LAWTON/FT SILL CLEAR     65  55  70 S7        30.06R
FREDERICK      CLEAR     67  51  56 SE12      30.04R
CLINTON        CLEAR     65  52  62 S10       30.08S
HOBART         CLEAR     67  51  56 S14       30.07R
ALTUS AFB      CLEAR     60  52  73 SE6       30.06R
$$

OKZ018>020-024>031-220500-
CENTRAL OKLAHOMA

CITY           SKY/WX    TMP DP  RH WIND       PRES   REMARKS
OKLAHOMA CITY  CLEAR     63  57  81 SE6       30.07S
OKC/WILEY POST CLEAR     67  58  72 S9        30.07R
OKC/TINKER AFB CLEAR     64  58  83 S7        30.07S
STILLWATER     CLEAR     66  59  78 SE7       30.06S
GUTHRIE        CLEAR     67  59  75 S6        30.06S
$$

OKZ008-013-054>072-220500-
NORTHEAST OKLAHOMA

CITY           SKY/WX    TMP DP  RH WIND       PRES   REMARKS
TULSA          CLEAR     68  62  81 SE8       30.06S
TULSA/JONES    CLEAR     62  61  96 CALM      30.07S FOG
PONCA CITY     CLEAR     67  60  78 SE8       30.05S
BARTLESVILLE   CLEAR     56  56 100 CALM      30.09R
MUSKOGEE       CLEAR     62  60  93 SE5       30.09R
$$

OKZ032-040>043-046>053-073>077-220500-
SOUTH CENTRAL/SOUTHEAST OKLAHOMA

CITY           SKY/WX    TMP DP  RH WIND       PRES   REMARKS
ARDMORE/DWNTWN CLEAR     61  59  94 CALM      30.07S
MCALESTER      PTCLDY    61  59  93 CALM      30.09R
$$





U.S. Dept. of Commerce
NOAA National Weather Service
1325 East West Highway
Silver Spring, MD 20910
E-mail: w-nws.webmaster@noaa.gov
Page last modified: May 16, 2007
NATIONAL WEATHER SERVICE: for Safety, for Work, for Fun - FOR LIFE